Regional Weather Roundup
Issued by NWS

Home | Current Version | Previous Version | Text Only | Print | Product List | Glossary Off
Versions: 1 2 3 4 5 6 7 8 9 10 11 12 13 14 15 16 17 18 19 20 21 22 23 24 25 26 27 28 29 30 31 32 33 34 35 36 37 38 39 40 41 42 43 44 45 46 47 48 49 50

000
ASUS43 KLSX 240507
RWRMO

WEATHER SUMMARY FOR MISSOURI
NATIONAL WEATHER SERVICE SPRINGFIELD MO
1200 AM CDT TUE OCT 24 2017

NOTE: "FAIR" INDICATES FEW OR NO CLOUDS BELOW 12,000 FEET WITH NO
       SIGNIFICANT WEATHER AND/OR OBSTRUCTIONS TO VISIBILITY.
       CURRENT SKY AND/OR WEATHER CONDITIONS ARE NOT AVAILABLE FOR
       CHILLICOTHE AND FARMINGTON.

MOZ001>031-035>038-043-044-053-054-240600-
...NORTHERN AND WESTERN MISSOURI...

CITY           SKY/WX    TMP DP  RH WIND       PRES   REMARKS
KANSAS CTY INT CLEAR     48  34  58 W8        30.06F
KANSAS C DTWN  CLEAR     53  34  48 W12       30.06F
LEE`S SUMMIT   LGT RAIN  51  33  50 W9        30.06F
ST JOSEPH      LGT RAIN  50  35  56 W13       30.05F
CHILLICOTHE      N/A     51  34  52 W7        29.99F
KIRKSVILLE     CLOUDY    50  36  58 W13       29.91F

$$
MOZ066>068-077>081-088>096-101>105-240600-
...SOUTHWEST MISSOURI...

CITY           SKY/WX    TMP DP  RH WIND       PRES   REMARKS
SPRINGFIELD    CLEAR     54  34  46 NW16G28   30.07R
JOPLIN         CLEAR     54  34  46 NW13      30.14R
BRANSON        CLEAR     55  32  41 NW12G21   30.08S

$$
MOZ032>034-039>042-045>050-055>058-069>072-240600-
...CENTRAL MISSOURI...

CITY           SKY/WX    TMP DP  RH WIND       PRES   REMARKS
COLUMBIA       MOCLDY    53  33  46 NW18G26   29.96R
JEFFERSON CITY MOCLDY    56  31  38 NW14G33   29.97R
ROLLA          MOCLDY    53  35  50 W17G25    29.95F
SEDALIA        CLEAR     51  37  58 NW9       30.03S
WHITEMAN AFB   PTCLDY    50  33  52 W9        29.99F
WARRENSBURG    CLEAR     50  32  50 W7        30.04F
OSAGE BEACH    CLEAR     54  34  46 NW9G23    30.02R

$$
MOZ051-052-059>065-240600-
...EAST CENTRAL MISSOURI...

CITY           SKY/WX    TMP DP  RH WIND       PRES   REMARKS
ST LOUIS INTL  MOCLDY    54  40  59 W18G25    29.85F
SPIRIT OF STL  CLOUDY    56  39  53 W14       29.86F
ST CHARLES     MOCLDY    54  41  61 NW15      29.84F

$$
MOZ072>076-082>087-097>100-106>115-240600-
...SOUTH CENTRAL AND SOUTHEAST MISSOURI...

CITY           SKY/WX    TMP DP  RH WIND       PRES   REMARKS
CAPE GIRARDEAU CLEAR     51  43  74 W8        29.87F
FARMINGTON     PTCLDY    54  41  61 NW14G20   29.89F
POPLAR BLUFF   CLEAR     59  41  51 NW10      29.92S
WEST PLAINS    CLEAR     54  35  48 VRB7      30.00R

$$


USA.gov is the U.S. government's official web portal to all federal, state and local government web resources and services.